Location: Hains Lake
(37.8540°N, 99.8578°W)
Time: 23:06:31
(UTC+00:00)

Cosmos 1666 - Pass Details

Date: 11 December 2019
Orbit: 498 x 521 km, 82.5° (Epoch: 18 January)

Event Time Altitude Azimuth Distance (km) Brightness Sun altitude
Rises 13:05:07 0° 179° (S) 2,624 6.6 -7.9°
Reaches altitude 10° 13:07:15 10° 176° (S) 1,738 5.8 -7.5°
Maximum altitude 13:11:01 65° 95° (E) 571 3.2 -6.8°
Drops below altitude 10° 13:14:48 10° 14° (NNE) 1,739 5.3 -6.1°
Sets 13:16:56 0° 11° (N) 2,625 6.1 -5.7°
